This is the latest recevied weather packets stored in our database for station/object SV1JCZ-13. If no packets are shown the sender has not sent any weather packets the latest 10 day(s).
| Time | Temp. | Humidity | Pressure | Rain* | Wind** | Luminosity | Snow |
|---|---|---|---|---|---|---|---|
| 1777904465 | 20.56° C | 23% | 0 hPa | 0 mm | - | - | - |
| 1777904105 | 20.56° C | 21% | 0 hPa | 0 mm | - | - | - |
| 1777903745 | 20° C | 26% | 0 hPa | 0 mm | - | - | - |
| 1777903385 | 20° C | 24% | 0 hPa | 0 mm | - | - | - |
| 1777903025 | 19.44° C | 25% | 0 hPa | 0 mm | - | - | - |
| 1777902665 | 19.44° C | 26% | 0 hPa | 0 mm | - | - | - |
| 1777902305 | 18.89° C | 26% | 0 hPa | 0 mm | - | - | - |
| 1777901945 | 18.89° C | 26% | 0 hPa | 0 mm | - | - | - |
| 1777901826 | 18.89° C | 26% | 0 hPa | 0 mm | - | - | - |
| 1777901585 | 18.33° C | 25% | 0 hPa | 0 mm | - | - | - |
| 1777901225 | 17.78° C | 26% | 0 hPa | 0 mm | - | - | - |
| 1777900865 | 17.22° C | 25% | 0 hPa | 0 mm | - | - | - |
| 1777900626 | 17.22° C | 29% | 0 hPa | 0 mm | - | - | - |
| 1777900505 | 16.67° C | 30% | 0 hPa | 0 mm | - | - | - |
| 1777900145 | 16.67° C | 28% | 0 hPa | 0 mm | - | - | - |
| 1777899785 | 16.11° C | 31% | 0 hPa | 0 mm | - | - | - |
| 1777899425 | 16.11° C | 32% | 0 hPa | 0 mm | - | - | - |
| 1777899065 | 15.56° C | 32% | 0 hPa | 0 mm | - | - | - |
| 1777898705 | 15.56° C | 32% | 0 hPa | 0 mm | - | - | - |
| 1777898345 | 15.56° C | 35% | 0 hPa | 0 mm | - | - | - |
| 1777898226 | 15.56° C | 35% | 0 hPa | 0 mm | - | - | - |
| 1777897985 | 15.56° C | 35% | 0 hPa | 0 mm | - | - | - |
| 1777897625 | 15.56° C | 34% | 0 hPa | 0 mm | - | - | - |
| 1777897265 | 15° C | 37% | 0 hPa | 0 mm | - | - | - |
| 1777897026 | 15° C | 37% | 0 hPa | 0 mm | - | - | - |
* Rain latest hour (hover to see other rain measurements)
** Current wind speed in m/s (hover to see current wind gust speed)